[[{"header":{"parameterUnit":"m.s-1","parameterCategory":2,"la1":30.2991,"la2":30.254,"lo1":-89.0895,"lo2":-89.0444,"dy":0.0017,"dx":0.0017,"nx":28,"ny":28,"refTime":"2025-11-06T09:00:00:Z","depth":"0","parameterNumber":2,"parameterNumberName":"U-component_of_CURRENTS"},"data":[0,0,0,0,0,0,0,0,0,0,0,0,0,0,0,0,0,0,0,0,0,0,0,0,0,0,0,0,0,0,0,0,0,0,0,0,0,0,0,0,0,0,0,0,0,0,0,0,0,0,0,0,0,0,0,0,0,0,-0.2257,-0.2258,0,-0.2274,-0.2274,-0.2274,-0.2246,-0.2245,-0.2244,-0.2244,-0.2211,-0.2211,-0.221,0,0,0,0,0,0,0,0,0,0,0,0,0,-0.2193,-0.2194,-0.2257,-0.2258,-0.2258,-0.2274,-0.2274,-0.2274,-0.2246,-0.2245,-0.2244,-0.2244,-0.2211,-0.2211,-0.221,0,0,0,0,0,0,0,0,0,0,0,0,0,-0.2214,-0.2194,-0.2257,-0.2248,-0.2248,-0.2274,-0.2274,-0.2274,-0.2246,-0.2245,-0.2244,-0.2243,-0.2211,-0.2211,-0.221,-0.2229,0,0,-0.2209,-0.2209,0,0,0,0,0,0,0,0,-0.2212,-0.2216,-0.2249,-0.2249,-0.2249,-0.2259,-0.2239,-0.2257,-0.2246,-0.2244,-0.2244,-0.2243,-0.2225,-0.2223,-0.2226,-0.2227,-0.2226,-0.2209,-0.2209,-0.2209,-0.2209,0,0,0,0,0,0,0,-0.2211,-0.2215,-0.2261,-0.225,-0.225,-0.224,-0.2242,-0.2242,-0.2237,-0.2244,-0.2243,-0.2249,-0.2224,-0.2226,-0.2225,-0.2226,-0.2209,-0.2209,-0.2209,-0.2209,-0.2211,-0.2211,0,0,0,0,0,0,-0.2216,-0.2214,-0.2261,-0.2262,-0.2231,-0.2243,-0.2244,-0.2255,-0.2238,-0.2236,-0.225,-0.2248,-0.2227,-0.2225,-0.2223,-0.2235,-0.2209,-0.2208,-0.2208,-0.2211,-0.2211,-0.2211,0,0,0,0,0,0,-0.2215,-0.2221,-0.226,-0.224,-0.2244,-0.2245,-0.2257,-0.2256,-0.2253,-0.2244,-0.224,-0.2249,-0.2226,-0.2224,-0.2219,-0.2233,-0.2208,-0.2208,-0.221,-0.2211,-0.2211,-0.2263,0,0,0,0,0,0,-0.2213,-0.222,-0.2223,-0.224,-0.2246,-0.2278,-0.2258,-0.2257,-0.2261,-0.2258,-0.2242,-0.2238,-0.2225,-0.222,-0.2219,-0.2232,-0.2208,-0.221,-0.2211,-0.2211,-0.2261,-0.2265,-0.2269,0,0,0,0,0,-0.2211,-0.2223,-0.2223,-0.2228,-0.2252,-0.2279,-0.2281,-0.2275,-0.2262,-0.2267,-0.2251,-0.2238,-0.2222,-0.222,-0.2219,-0.2232,-0.221,-0.221,-0.2211,-0.2259,-0.2265,-0.2269,0,0,0,0,0,0,-0.2191,-0.2222,-0.2222,-0.2241,-0.2259,-0.2275,-0.2278,-0.2278,-0.2272,-0.2263,-0.2246,-0.2242,-0.2243,-0.2229,-0.2227,-0.2233,-0.2213,-0.2213,-0.225,-0.2254,-0.2258,-0.2262,-0.2207,0,0,0,0,0,-0.2192,-0.2207,-0.2236,-0.2247,-0.2259,-0.2269,-0.2276,-0.2278,-0.228,-0.2276,-0.2266,-0.2251,-0.2248,-0.2243,-0.2237,-0.2243,-0.2219,-0.2248,-0.2252,-0.2256,-0.2257,-0.224,-0.2242,-0.2213,-0.2213,-0.2213,0,0,-0.2184,-0.2204,-0.221,-0.2244,-0.2254,-0.2279,-0.2269,-0.2287,-0.2301,-0.2274,-0.2279,-0.2268,-0.2252,-0.2258,-0.2257,-0.2246,-0.2249,-0.2256,-0.226,-0.2259,-0.2241,-0.2244,-0.2246,-0.2214,-0.2214,-0.2214,0,0,-0.2185,-0.2199,-0.2215,-0.2239,-0.2267,-0.2281,-0.2288,-0.2309,-0.231,-0.2321,-0.2303,-0.2298,-0.2292,-0.2286,-0.2281,-0.2302,-0.2272,-0.2299,-0.2323,-0.2307,-0.2309,-0.2311,-0.2277,-0.2276,-0.23,-0.23,-0.23,0,-0.2173,-0.22,-0.2222,-0.225,-0.2267,-0.2284,-0.2306,-0.2321,-0.2335,-0.2336,-0.2325,-0.2317,-0.2306,-0.2313,-0.232,-0.2313,-0.2291,-0.2309,-0.2313,-0.2314,-0.2315,-0.228,-0.2278,-0.2302,-0.2302,-0.2302,-0.2301,0,-0.219,-0.2213,-0.2227,-0.2267,-0.229,-0.2312,-0.2345,-0.236,-0.2361,-0.2369,-0.2374,-0.2363,-0.2353,-0.2355,-0.2346,-0.2352,-0.2329,-0.2323,-0.2304,-0.2321,-0.2283,-0.2279,-0.2306,-0.2305,-0.2304,-0.2304,0,0,-0.2154,-0.2224,-0.2227,-0.2244,-0.23,-0.2317,-0.2354,-0.2383,-0.239,-0.2406,-0.2407,-0.2415,-0.2403,-0.2396,-0.2386,-0.2379,-0.2369,-0.2358,-0.2356,-0.2328,-0.2319,-0.2231,-0.2219,-0.2364,-0.2364,-0.2364,-0.2287,0,-0.2154,-0.22,-0.224,-0.2276,-0.2298,-0.2338,-0.2367,-0.2397,-0.241,-0.2418,-0.2421,-0.2416,-0.2421,-0.2409,-0.241,-0.2378,-0.2363,-0.2389,-0.2302,-0.2299,-0.2223,-0.2213,-0.2116,-0.2032,-0.2283,-0.2282,-0.2282,0,-0.215,-0.2183,-0.2218,-0.2273,-0.2286,-0.231,-0.2345,-0.2375,-0.2407,-0.2415,-0.2427,-0.2424,-0.2427,-0.2419,-0.2387,-0.2403,-0.2365,-0.2341,-0.2337,-0.2235,-0.2204,-0.2056,-0.2016,-0.2008,-0.2276,-0.2277,-0.2277,0,-0.2094,-0.2162,-0.2183,-0.2204,-0.2274,-0.2287,-0.2318,-0.2361,-0.2378,-0.2404,-0.2405,-0.2418,-0.2403,-0.2385,-0.2346,-0.2363,-0.2293,-0.2304,-0.2188,-0.2181,-0.2069,-0.2051,-0.2013,-0.227,-0.227,-0.227,-0.227,0,-0.2072,-0.2086,-0.2155,-0.2164,-0.218,-0.2244,-0.2257,-0.2294,-0.2336,-0.2343,-0.2388,-0.2383,-0.2393,-0.2362,-0.2336,-0.2241,-0.228,-0.2182,-0.2154,-0.2082,-0.2067,-0.2031,-0.2061,-0.2267,-0.2268,-0.2268,-0.2269,0,-0.1999,-0.2052,-0.2073,-0.2138,-0.2152,-0.2157,-0.2216,-0.2226,-0.228,-0.229,-0.2296,-0.2341,-0.2297,-0.2284,-0.2234,-0.2199,-0.2087,-0.2087,-0.1992,-0.1954,-0.1837,-0.1873,-0.1793,-0.174,-0.1947,-0.1944,-0.1942,0,-0.1964,-0.1969,-0.2026,-0.2031,-0.2054,-0.208,-0.2095,-0.2174,-0.2192,-0.2254,-0.2246,-0.2232,-0.2188,-0.2089,-0.2022,-0.1932,-0.1963,-0.1803,-0.1819,-0.1804,-0.1825,-0.186,-0.1825,-0.169,-0.1685,-0.1682,-0.1679,0,-0.1883,-0.1904,-0.1921,-0.1933,-0.1947,-0.1969,-0.2001,-0.2013,-0.21,-0.2115,-0.2113,-0.2083,-0.1997,-0.1866,-0.1765,-0.1712,-0.1758,-0.1729,-0.1742,-0.1637,-0.1644,-0.1588,-0.1769,-0.1649,-0.1652,-0.1654,-0.1656,-0.1657,-0.1806,-0.1795,-0.1816,-0.1814,-0.1833,-0.1835,-0.181,-0.1861,-0.187,-0.1856,-0.1934,-0.1836,-0.1768,-0.1603,-0.1542,-0.1432,-0.1511,-0.1407,-0.1455,-0.1494,-0.1434,-0.1536,-0.1371,-0.1373,-0.1374,-0.1375,-0.1376,0,-0.1698,-0.1695,-0.1694,-0.1689,-0.1658,-0.1709,-0.1722,-0.1676,-0.1638,-0.1616,-0.1591,-0.1516,-0.1406,-0.1353,-0.1267,-0.1197,-0.1183,-0.1186,-0.1233,-0.1213,-0.1311,-0.1289,-0.1064,-0.1064,-0.1064,-0.1064,-0.1064,-0.1064,-0.1642,-0.1597,-0.1595,-0.1505,-0.1496,-0.1416,-0.1394,-0.1351,-0.1296,-0.116,-0.1089,-0.1029,-0.1116,-0.1271,-0.1194,-0.1123,-0.1123,-0.1069,-0.1117,-0.1221,-0.1247,-0.1272,-0.1258,-0.103,-0.103,-0.0961,-0.0961,-0.0961]},{"header":{"parameterUnit":"m.s-1","parameterCategory":2,"la1":30.2991,"la2":30.254,"lo1":-89.0895,"lo2":-89.0444,"dy":0.0017,"dx":0.0017,"nx":28,"ny":28,"refTime":"2025-11-06T09:00:00:Z","depth":"0","parameterNumber":3,"parameterNumberName":"V-component_of_CURRENTS"},"data":[0,0,0,0,0,0,0,0,0,0,0,0,0,0,0,0,0,0,0,0,0,0,0,0,0,0,0,0,0,0,0,0,0,0,0,0,0,0,0,0,0,0,0,0,0,0,0,0,0,0,0,0,0,0,0,0,0,0,-0.0293,-0.0292,0,-0.023,-0.0229,-0.0228,-0.0179,-0.0178,-0.0178,-0.0178,-0.0072,-0.007,-0.0067,0,0,0,0,0,0,0,0,0,0,0,0,0,-0.0328,-0.0328,-0.0293,-0.0292,-0.0291,-0.023,-0.0229,-0.0228,-0.0179,-0.0178,-0.0178,-0.0177,-0.0073,-0.007,-0.0067,0,0,0,0,0,0,0,0,0,0,0,0,0,-0.0292,-0.0327,-0.0293,-0.0261,-0.0257,-0.023,-0.0229,-0.0227,-0.0179,-0.0178,-0.0178,-0.0177,-0.0074,-0.007,-0.0066,-0.0054,0,0,-0.0055,-0.0053,0,0,0,0,0,0,0,0,-0.0294,-0.0291,-0.0266,-0.0263,-0.0259,-0.0213,-0.0202,-0.0168,-0.0179,-0.0207,-0.0178,-0.0177,-0.0116,-0.0109,-0.0097,-0.0049,-0.0044,-0.0055,-0.0052,-0.0051,-0.005,0,0,0,0,0,0,0,-0.0297,-0.0293,-0.0266,-0.0265,-0.0261,-0.0235,-0.0229,-0.0195,-0.0163,-0.0204,-0.0201,-0.0197,-0.0114,-0.0101,-0.0094,-0.0043,-0.0055,-0.0051,-0.0049,-0.0048,0.0034,0.0033,0,0,0,0,0,0,-0.031,-0.0296,-0.0268,-0.0265,-0.0277,-0.0235,-0.0228,-0.0227,-0.0165,-0.0155,-0.0197,-0.0195,-0.0107,-0.0098,-0.009,-0.0071,-0.0051,-0.0047,-0.0045,0.0034,0.0034,0.0033,0,0,0,0,0,0,-0.0312,-0.0309,-0.0271,-0.0279,-0.0273,-0.0235,-0.0233,-0.0226,-0.0213,-0.016,-0.0149,-0.0192,-0.0107,-0.0095,-0.0064,-0.0066,-0.0046,-0.0042,0.0034,0.0034,0.0033,-0.0033,0,0,0,0,0,0,-0.0313,-0.031,-0.0314,-0.0281,-0.0273,-0.0264,-0.0234,-0.0225,-0.0212,-0.0208,-0.0152,-0.0141,-0.0105,-0.007,-0.0061,-0.0061,-0.0039,0.0034,0.0034,0.0034,-0.003,-0.0035,-0.0039,0,0,0,0,0,-0.0314,-0.0328,-0.0315,-0.0312,-0.028,-0.0265,-0.0259,-0.0228,-0.0212,-0.0213,-0.0173,-0.0143,-0.0064,-0.0067,-0.0056,-0.0055,0.0034,0.0034,0.0034,-0.0028,-0.0034,-0.0039,0,0,0,0,0,0,-0.0346,-0.0324,-0.0308,-0.0314,-0.0294,-0.0257,-0.0256,-0.0234,-0.0204,-0.0198,-0.0146,-0.0133,-0.0106,-0.0072,-0.0077,-0.0032,-0.0009,-0.0007,-0.006,-0.0065,-0.0069,-0.0081,-0.0036,0,0,0,0,0,-0.0356,-0.0359,-0.0331,-0.0335,-0.0328,-0.0292,-0.0282,-0.0262,-0.0231,-0.0217,-0.0178,-0.0135,-0.0098,-0.0076,-0.0041,-0.0017,0.0025,-0.0008,-0.0013,-0.0017,-0.0018,0.0041,0.0041,0.0033,0.0033,0.0033,0,0,-0.0369,-0.0357,-0.0358,-0.0341,-0.0322,-0.0322,-0.0284,-0.0276,-0.0271,-0.021,-0.0192,-0.015,-0.0096,-0.007,-0.0054,-0.0042,0.0008,-0.0017,-0.0021,-0.002,0.0041,0.0041,0.0042,0.0033,0.0033,0.0033,0,0,-0.0403,-0.0386,-0.0402,-0.039,-0.0371,-0.0347,-0.0348,-0.0315,-0.0296,-0.0275,-0.0228,-0.0189,-0.0138,-0.0096,-0.0069,-0.0075,-0.002,-0.0064,-0.0091,-0.0035,-0.0033,-0.0032,0.0019,0.0025,-0.0063,-0.0063,-0.0063,0,-0.042,-0.0433,-0.0404,-0.0416,-0.041,-0.0364,-0.0377,-0.0353,-0.0313,-0.0294,-0.0279,-0.0191,-0.0149,-0.0103,-0.0107,-0.0084,-0.0045,-0.0078,-0.0041,-0.0038,-0.0035,0.0016,0.0024,-0.0066,-0.0066,-0.0066,-0.0065,0,-0.0465,-0.0473,-0.0482,-0.0479,-0.0469,-0.0473,-0.0437,-0.0421,-0.0389,-0.0355,-0.0308,-0.0247,-0.0193,-0.0172,-0.0142,-0.0101,-0.0077,-0.0057,-0.0031,-0.0039,0.0016,0.0026,-0.0071,-0.007,-0.0069,-0.0068,0,0,-0.0505,-0.0514,-0.0515,-0.0524,-0.0503,-0.0499,-0.0489,-0.046,-0.0443,-0.0396,-0.0366,-0.0303,-0.026,-0.0226,-0.0175,-0.0125,-0.0075,-0.009,-0.0085,-0.0046,0.0048,0.0094,0.011,-0.0048,-0.0046,-0.0045,0.0077,0,-0.0547,-0.0589,-0.0575,-0.06,-0.0616,-0.0571,-0.0564,-0.0528,-0.0482,-0.044,-0.0365,-0.032,-0.0282,-0.0254,-0.02,-0.0102,-0.0052,-0.011,0.0056,0.0061,0.0098,0.0122,0.0163,0.0279,0.0087,0.0089,0.009,0,-0.0595,-0.0615,-0.0657,-0.0659,-0.066,-0.0664,-0.063,-0.0616,-0.0542,-0.0504,-0.044,-0.0377,-0.0296,-0.0266,-0.011,-0.0149,-0.0063,0.0013,0.002,0.0093,0.0125,0.0258,0.0305,0.0433,0.0106,0.0104,0.0103,0,-0.064,-0.0668,-0.0703,-0.0706,-0.0703,-0.0704,-0.0692,-0.0635,-0.0615,-0.0539,-0.0505,-0.0405,-0.0341,-0.0228,-0.0077,-0.0093,0.0105,0.0105,0.0228,0.0232,0.0317,0.0326,0.0504,0.0211,0.0211,0.021,0.021,0,-0.0692,-0.0717,-0.0729,-0.0749,-0.0777,-0.0752,-0.0755,-0.0722,-0.0665,-0.063,-0.0542,-0.048,-0.0327,-0.0196,-0.0077,0.0117,0.0108,0.0234,0.0273,0.0295,0.03,0.0455,0.0493,0.0215,0.0214,0.0213,0.0212,0,-0.0738,-0.0749,-0.0789,-0.0801,-0.0805,-0.0823,-0.0809,-0.0801,-0.0739,-0.0687,-0.0666,-0.0522,-0.0345,-0.0179,0.003,0.0131,0.0391,0.0366,0.0379,0.0417,0.0629,0.066,0.0868,0.0954,0.0513,0.0515,0.0516,0,-0.0766,-0.0795,-0.0832,-0.0858,-0.0867,-0.0884,-0.0892,-0.0847,-0.0828,-0.0702,-0.0677,-0.0499,-0.0349,-0.0024,0.0186,0.0416,0.0504,0.0575,0.0549,0.0662,0.0726,0.0741,0.0798,0.0637,0.0639,0.0641,0.0643,0,-0.0813,-0.0827,-0.0859,-0.0917,-0.0942,-0.0964,-0.0965,-0.0959,-0.0885,-0.0803,-0.0655,-0.052,-0.0205,0.0088,0.0376,0.051,0.0676,0.0623,0.0751,0.085,0.0871,0.0964,0.0525,0.0661,0.0659,0.0658,0.0657,0.0656,-0.0836,-0.0874,-0.0918,-0.0968,-0.1002,-0.1025,-0.1022,-0.097,-0.0904,-0.07,-0.0611,-0.0284,0.0014,0.0437,0.058,0.0893,0.0844,0.0982,0.1015,0.1023,0.11,0.0694,0.0863,0.0863,0.0862,0.0862,0.0861,0,-0.086,-0.0905,-0.0963,-0.1018,-0.1056,-0.1061,-0.1052,-0.0982,-0.0855,-0.0581,-0.0363,0.0126,0.0454,0.0752,0.1106,0.1272,0.1302,0.1357,0.1395,0.1438,0.1104,0.1103,0.132,0.132,0.132,0.132,0.132,0.1319,-0.0874,-0.0935,-0.097,-0.1043,-0.1078,-0.108,-0.1061,-0.0884,-0.067,-0.0201,0.0207,0.0481,0.0821,0.1269,0.159,0.1622,0.1768,0.1755,0.183,0.1596,0.1563,0.1531,0.1543,0.1848,0.1849,0.2164,0.2167,0.217]}],[{"header":{"parameterUnit":"m.s-1","parameterCategory":2,"la1":30.2991,"la2":30.254,"lo1":-89.0895,"lo2":-89.0444,"dy":0.0017,"dx":0.0017,"nx":28,"ny":28,"refTime":"2025-11-06T09:00:00:Z","depth":"2","parameterNumber":2,"parameterNumberName":"U-component_of_CURRENTS"},"data":[0,0,0,0,0,0,0,0,0,0,0,0,0,0,0,0,0,0,0,0,0,0,0,0,0,0,0,0,0,0,0,0,0,0,0,0,0,0,0,0,0,0,0,0,0,0,0,0,0,0,0,0,0,0,0,0,0,0,-0.2085,-0.2086,0,-0.2112,-0.2112,-0.2112,-0.2097,-0.2096,-0.2096,-0.2095,-0.2084,-0.2085,-0.2085,0,0,0,0,0,0,0,0,0,0,0,0,0,-0.2021,-0.2022,-0.2085,-0.2086,-0.2086,-0.2112,-0.2112,-0.2112,-0.2097,-0.2096,-0.2096,-0.2095,-0.2084,-0.2085,-0.2085,0,0,0,0,0,0,0,0,0,0,0,0,0,-0.2046,-0.2022,-0.2085,-0.2083,-0.2084,-0.2112,-0.2112,-0.2112,-0.2097,-0.2096,-0.2095,-0.2095,-0.2084,-0.2085,-0.2085,-0.2104,0,0,-0.2086,-0.2086,0,0,0,0,0,0,0,0,-0.2045,-0.2049,-0.2083,-0.2084,-0.2084,-0.2102,-0.2086,-0.2108,-0.2097,-0.209,-0.2095,-0.2094,-0.2089,-0.2089,-0.2093,-0.2103,-0.2103,-0.2086,-0.2086,-0.2086,-0.2087,0,0,0,0,0,0,0,-0.2043,-0.2047,-0.2094,-0.2084,-0.2084,-0.2081,-0.2084,-0.209,-0.2091,-0.209,-0.209,-0.2096,-0.2088,-0.2093,-0.2093,-0.2103,-0.2086,-0.2086,-0.2087,-0.2087,-0.2107,-0.2107,0,0,0,0,0,0,-0.2046,-0.2046,-0.2093,-0.2095,-0.2064,-0.2083,-0.2086,-0.2095,-0.2092,-0.2092,-0.2097,-0.2096,-0.2093,-0.2092,-0.2092,-0.211,-0.2086,-0.2087,-0.2087,-0.2107,-0.2107,-0.2108,0,0,0,0,0,0,-0.2044,-0.205,-0.2092,-0.2072,-0.2078,-0.2086,-0.2096,-0.2096,-0.21,-0.2098,-0.2096,-0.21,-0.2092,-0.2092,-0.2096,-0.211,-0.2087,-0.2087,-0.2106,-0.2107,-0.2107,-0.2149,0,0,0,0,0,0,-0.2042,-0.2049,-0.2053,-0.2073,-0.2079,-0.2112,-0.2097,-0.2098,-0.2106,-0.2104,-0.21,-0.2098,-0.2091,-0.2096,-0.2097,-0.211,-0.2088,-0.2106,-0.2107,-0.2107,-0.2147,-0.2151,-0.2154,0,0,0,0,0,-0.204,-0.2052,-0.2053,-0.2058,-0.2085,-0.2113,-0.2116,-0.2117,-0.2107,-0.2115,-0.2107,-0.2098,-0.21,-0.2097,-0.2098,-0.2111,-0.2106,-0.2106,-0.2107,-0.2146,-0.215,-0.2154,0,0,0,0,0,0,-0.2023,-0.2052,-0.2053,-0.2072,-0.2092,-0.2111,-0.2117,-0.212,-0.2122,-0.2116,-0.2107,-0.2106,-0.2115,-0.2106,-0.2103,-0.2117,-0.21,-0.2101,-0.2129,-0.2133,-0.2136,-0.2139,-0.2088,0,0,0,0,0,-0.2024,-0.2037,-0.2066,-0.2078,-0.209,-0.2104,-0.2113,-0.2119,-0.2126,-0.2126,-0.2124,-0.2118,-0.212,-0.212,-0.2121,-0.2133,-0.2113,-0.2139,-0.2143,-0.2146,-0.2147,-0.2134,-0.2136,-0.211,-0.211,-0.211,0,0,-0.2018,-0.2037,-0.2043,-0.2075,-0.2088,-0.2112,-0.2106,-0.2127,-0.2143,-0.2125,-0.2138,-0.2133,-0.2126,-0.2137,-0.214,-0.2131,-0.2141,-0.2147,-0.2149,-0.2149,-0.2135,-0.2138,-0.214,-0.2111,-0.211,-0.211,0,0,-0.2021,-0.2035,-0.205,-0.2073,-0.2101,-0.2116,-0.2124,-0.2149,-0.2153,-0.2171,-0.2159,-0.2161,-0.2166,-0.2164,-0.2162,-0.2184,-0.2161,-0.2184,-0.2205,-0.2192,-0.2194,-0.2196,-0.2167,-0.2166,-0.2185,-0.2185,-0.2185,0,-0.2013,-0.2037,-0.2058,-0.2083,-0.2101,-0.212,-0.2142,-0.2159,-0.218,-0.2185,-0.2178,-0.2184,-0.2179,-0.219,-0.2197,-0.2193,-0.2175,-0.2192,-0.2197,-0.2198,-0.2199,-0.2169,-0.2167,-0.2187,-0.2187,-0.2186,-0.2186,0,-0.203,-0.2052,-0.2064,-0.2102,-0.2125,-0.2148,-0.218,-0.2199,-0.2205,-0.2217,-0.223,-0.2225,-0.2224,-0.2227,-0.222,-0.2229,-0.221,-0.2205,-0.2188,-0.2205,-0.2171,-0.2169,-0.219,-0.2189,-0.2189,-0.2188,0,0,-0.2,-0.2063,-0.2066,-0.2084,-0.2136,-0.2154,-0.2192,-0.2224,-0.2236,-0.2255,-0.2264,-0.2275,-0.2268,-0.2266,-0.2259,-0.2253,-0.2244,-0.2235,-0.2234,-0.2208,-0.2204,-0.2121,-0.211,-0.2241,-0.2241,-0.2241,-0.2175,0,-0.2003,-0.2046,-0.2081,-0.2118,-0.214,-0.2179,-0.2209,-0.2241,-0.2259,-0.2274,-0.228,-0.2284,-0.2285,-0.228,-0.2279,-0.2253,-0.224,-0.2261,-0.2189,-0.2187,-0.2114,-0.2105,-0.1957,-0.188,-0.2172,-0.2171,-0.2171,0,-0.2001,-0.2031,-0.2067,-0.2121,-0.2134,-0.2159,-0.22,-0.2232,-0.2268,-0.2281,-0.2296,-0.2298,-0.2302,-0.2293,-0.2265,-0.2279,-0.2245,-0.2223,-0.2219,-0.2126,-0.2099,-0.1912,-0.1863,-0.2166,-0.2166,-0.2167,-0.2167,0,-0.1953,-0.2017,-0.204,-0.206,-0.2128,-0.2145,-0.2177,-0.2223,-0.2243,-0.2277,-0.2284,-0.2299,-0.2288,-0.2271,-0.2234,-0.2248,-0.2187,-0.2195,-0.2088,-0.2081,-0.1931,-0.1911,-0.2165,-0.2165,-0.2165,-0.2166,-0.2166,0,-0.1934,-0.195,-0.2017,-0.2028,-0.205,-0.2111,-0.2132,-0.217,-0.2216,-0.2227,-0.2274,-0.2272,-0.2282,-0.2254,-0.2228,-0.214,-0.2178,-0.2082,-0.2058,-0.194,-0.1922,-0.2156,-0.2156,-0.2163,-0.2164,-0.2164,-0.2165,0,-0.1869,-0.1919,-0.1943,-0.2009,-0.2025,-0.2035,-0.2097,-0.2112,-0.217,-0.2184,-0.2193,-0.2238,-0.2198,-0.2188,-0.2142,-0.2106,-0.2046,-0.2003,-0.1856,-0.1815,-0.1951,-0.1954,-0.1878,-0.1875,-0.1872,-0.187,-0.1867,0,-0.1837,-0.1844,-0.1904,-0.1912,-0.1936,-0.1968,-0.1986,-0.2066,-0.2086,-0.2151,-0.2145,-0.2137,-0.2091,-0.2002,-0.1937,-0.1852,-0.194,-0.1683,-0.1684,-0.1937,-0.1922,-0.1929,-0.1936,-0.1498,-0.1493,-0.1489,-0.1486,0,-0.1764,-0.1786,-0.1804,-0.1822,-0.184,-0.1865,-0.1902,-0.1913,-0.1999,-0.2011,-0.2005,-0.1974,-0.1899,-0.1743,-0.1655,-0.1601,-0.169,-0.1597,-0.1885,-0.1599,-0.1574,-0.1561,-0.158,-0.145,-0.1453,-0.1456,-0.1458,-0.1459,-0.1694,-0.1686,-0.1708,-0.1711,-0.1735,-0.1737,-0.1709,-0.1758,-0.176,-0.1744,-0.1809,-0.1705,-0.168,-0.145,-0.1364,-0.1308,-0.143,-0.1381,-0.1395,-0.1413,-0.1387,-0.1359,-0.1187,-0.1189,-0.1191,-0.1193,-0.1194,0,-0.1595,-0.1594,-0.1595,-0.1594,-0.1566,-0.1619,-0.1626,-0.157,-0.1516,-0.153,-0.1486,-0.131,-0.119,-0.1173,-0.1019,-0.0989,-0.0999,-0.0959,-0.0977,-0.1012,-0.1044,-0.1002,-0.0698,-0.0697,-0.0696,-0.0694,0,0,-0.1544,-0.1503,-0.15,-0.1416,-0.1411,-0.1324,-0.1295,-0.1232,-0.1203,-0.1115,-0.1062,-0.1115,-0.1127,-0.0914,-0.0862,-0.0753,-0.0877,-0.0713,-0.1109,-0.1164,-0.1194,-0.1281,-0.1253,0,0,0,0,0]},{"header":{"parameterUnit":"m.s-1","parameterCategory":2,"la1":30.2991,"la2":30.254,"lo1":-89.0895,"lo2":-89.0444,"dy":0.0017,"dx":0.0017,"nx":28,"ny":28,"refTime":"2025-11-06T09:00:00:Z","depth":"2","parameterNumber":3,"parameterNumberName":"V-component_of_CURRENTS"},"data":[0,0,0,0,0,0,0,0,0,0,0,0,0,0,0,0,0,0,0,0,0,0,0,0,0,0,0,0,0,0,0,0,0,0,0,0,0,0,0,0,0,0,0,0,0,0,0,0,0,0,0,0,0,0,0,0,0,0,-0.0249,-0.0248,0,-0.0193,-0.0192,-0.0192,-0.0149,-0.0148,-0.0148,-0.0148,-0.0055,-0.0053,-0.0051,0,0,0,0,0,0,0,0,0,0,0,0,0,-0.028,-0.0279,-0.0249,-0.0248,-0.0248,-0.0193,-0.0192,-0.0191,-0.0149,-0.0148,-0.0148,-0.0148,-0.0056,-0.0053,-0.005,0,0,0,0,0,0,0,0,0,0,0,0,0,-0.0248,-0.0279,-0.0249,-0.0221,-0.0218,-0.0193,-0.0192,-0.0191,-0.0149,-0.0148,-0.0148,-0.0148,-0.0056,-0.0053,-0.005,-0.0038,0,0,-0.004,-0.0038,0,0,0,0,0,0,0,0,-0.025,-0.0247,-0.0226,-0.0223,-0.0219,-0.0179,-0.0169,-0.0139,-0.0149,-0.0174,-0.0148,-0.0147,-0.0094,-0.0088,-0.0077,-0.0034,-0.003,-0.004,-0.0038,-0.0036,-0.0035,0,0,0,0,0,0,0,-0.0252,-0.0249,-0.0225,-0.0225,-0.0221,-0.0198,-0.0193,-0.0163,-0.0135,-0.0171,-0.0169,-0.0165,-0.0092,-0.008,-0.0074,-0.0028,-0.004,-0.0037,-0.0035,-0.0033,0.004,0.004,0,0,0,0,0,0,-0.0264,-0.0251,-0.0227,-0.0224,-0.0235,-0.0198,-0.0192,-0.0191,-0.0136,-0.0128,-0.0165,-0.0163,-0.0086,-0.0078,-0.0071,-0.005,-0.0036,-0.0033,-0.0031,0.004,0.004,0.004,0,0,0,0,0,0,-0.0265,-0.0263,-0.0229,-0.0237,-0.0231,-0.0198,-0.0197,-0.019,-0.0179,-0.0132,-0.0123,-0.0161,-0.0085,-0.0075,-0.0047,-0.0046,-0.0032,-0.0028,0.004,0.004,0.004,-0.001,0,0,0,0,0,0,-0.0267,-0.0264,-0.0268,-0.0238,-0.0231,-0.0223,-0.0197,-0.0189,-0.0178,-0.0174,-0.0125,-0.0116,-0.0084,-0.0052,-0.0044,-0.0041,-0.0026,0.004,0.004,0.004,-0.0008,-0.0012,-0.0015,0,0,0,0,0,-0.0268,-0.028,-0.0269,-0.0266,-0.0238,-0.0223,-0.0218,-0.0191,-0.0178,-0.0178,-0.0144,-0.0118,-0.0046,-0.005,-0.004,-0.0036,0.004,0.004,0.004,-0.0007,-0.0011,-0.0014,0,0,0,0,0,0,-0.0297,-0.0276,-0.0263,-0.0268,-0.025,-0.0217,-0.0216,-0.0197,-0.017,-0.0165,-0.0119,-0.0108,-0.0083,-0.0054,-0.0059,-0.0015,0.0002,0.0004,-0.0037,-0.0041,-0.0044,-0.0054,-0.0023,0,0,0,0,0,-0.0306,-0.0308,-0.0282,-0.0286,-0.028,-0.0248,-0.0239,-0.0221,-0.0194,-0.0181,-0.0147,-0.0108,-0.0075,-0.0055,-0.0024,-0.0001,0.0035,0.0009,0.0006,0.0003,0.0002,0.0057,0.0059,0.004,0.004,0.004,0,0,-0.0318,-0.0307,-0.0308,-0.0292,-0.0275,-0.0273,-0.0241,-0.0233,-0.0227,-0.0175,-0.0157,-0.0121,-0.0073,-0.0047,-0.0032,-0.0022,0.0026,0.0003,-0.0,0.0001,0.0057,0.0059,0.0061,0.004,0.004,0.004,0,0,-0.0348,-0.0334,-0.0347,-0.0335,-0.0317,-0.0295,-0.0296,-0.0266,-0.0248,-0.0228,-0.0187,-0.015,-0.0105,-0.0066,-0.004,-0.0042,0.0004,-0.0033,-0.0052,0.0001,0.0003,0.0005,0.0047,0.0054,-0.0031,-0.0031,-0.0031,0,-0.0364,-0.0375,-0.0348,-0.0357,-0.0352,-0.031,-0.032,-0.0296,-0.026,-0.0242,-0.023,-0.0151,-0.0112,-0.0067,-0.0067,-0.0048,-0.0015,-0.0043,-0.0003,-0.0,0.0003,0.0046,0.0054,-0.0034,-0.0034,-0.0033,-0.0033,0,-0.0402,-0.0409,-0.0416,-0.0411,-0.04,-0.0403,-0.0368,-0.0352,-0.0324,-0.0292,-0.0247,-0.0191,-0.0143,-0.0123,-0.0095,-0.0052,-0.0036,-0.0017,0.0004,0.0002,0.0047,0.0056,-0.0037,-0.0036,-0.0036,-0.0035,0,0,-0.0441,-0.0444,-0.0446,-0.0454,-0.043,-0.0427,-0.0412,-0.0384,-0.0369,-0.0323,-0.0296,-0.0232,-0.0195,-0.0164,-0.0117,-0.0067,-0.0018,-0.0038,-0.0034,-0.0001,0.0094,0.0119,0.0131,0.0008,0.0009,0.001,0.0114,0,-0.0479,-0.0514,-0.0497,-0.0519,-0.0533,-0.049,-0.048,-0.0445,-0.0402,-0.0364,-0.029,-0.025,-0.0211,-0.0188,-0.0132,-0.0046,0.0004,-0.0048,0.0095,0.0099,0.0119,0.0142,0.0116,0.0208,0.0123,0.0125,0.0126,0,-0.052,-0.0538,-0.0575,-0.0576,-0.0576,-0.0578,-0.0547,-0.0532,-0.0461,-0.0426,-0.0364,-0.0306,-0.0226,-0.0196,-0.0049,-0.0085,-0.0005,0.0064,0.0071,0.0118,0.0141,0.0199,0.0228,0.0141,0.014,0.0139,0.0138,0,-0.0567,-0.0589,-0.0621,-0.0623,-0.0617,-0.0619,-0.0607,-0.0552,-0.0534,-0.0462,-0.0434,-0.0334,-0.0278,-0.0166,-0.0027,-0.0037,0.014,0.0144,0.0244,0.0246,0.0266,0.0268,0.0248,0.0248,0.0247,0.0247,0.0247,0,-0.0616,-0.0639,-0.0649,-0.0668,-0.0697,-0.0669,-0.0675,-0.0644,-0.0591,-0.0562,-0.0472,-0.0418,-0.0267,-0.0147,-0.0031,0.014,0.0139,0.0249,0.0281,0.0247,0.0246,0.022,0.0215,0.0251,0.025,0.0249,0.0249,0,-0.0662,-0.0669,-0.0708,-0.0719,-0.0724,-0.0744,-0.0732,-0.0728,-0.0671,-0.0629,-0.0608,-0.0472,-0.0312,-0.0153,0.0045,0.0139,0.0294,0.0353,0.0298,0.0322,0.0362,0.0353,0.0468,0.047,0.0471,0.0472,0.0474,0,-0.0689,-0.0717,-0.0754,-0.0781,-0.0789,-0.0809,-0.0819,-0.0777,-0.0763,-0.0653,-0.0632,-0.0473,-0.0341,-0.0048,0.0146,0.0358,0.0357,0.0448,0.0425,0.0368,0.0388,0.0376,0.0366,0.043,0.043,0.0431,0.0431,0,-0.0738,-0.0751,-0.0783,-0.0843,-0.087,-0.0895,-0.09,-0.09,-0.0832,-0.0766,-0.0644,-0.0527,-0.0248,-0.0011,0.0254,0.0372,0.0408,0.0466,0.0443,0.0372,0.0339,0.0356,0.0346,0.0436,0.0436,0.0435,0.0435,0.0435,-0.0765,-0.0803,-0.0847,-0.0898,-0.0935,-0.0964,-0.097,-0.0946,-0.09,-0.078,-0.0666,-0.0462,-0.0243,0.014,0.0324,0.0486,0.0485,0.0521,0.0516,0.0512,0.0483,0.0455,0.0567,0.0568,0.0568,0.0568,0.0568,0,-0.0796,-0.0839,-0.0897,-0.0955,-0.0997,-0.1002,-0.1007,-0.0975,-0.0905,-0.0776,-0.0627,-0.036,-0.0094,0.013,0.0391,0.0548,0.0526,0.0567,0.0506,0.0501,0.0496,0.0464,0.0545,0.0545,0.0546,0.0546,0,0,-0.0813,-0.0875,-0.0908,-0.0987,-0.1025,-0.1046,-0.1039,-0.0969,-0.087,-0.0713,-0.0562,-0.0363,-0.0087,0.0092,0.0291,0.0424,0.0417,0.0434,0.0438,0.0337,0.0331,0.0459,0.0403,0,0,0,0,0]}],[{"header":{"parameterUnit":"m.s-1","parameterCategory":2,"la1":30.2991,"la2":30.254,"lo1":-89.0895,"lo2":-89.0444,"dy":0.0017,"dx":0.0017,"nx":28,"ny":28,"refTime":"2025-11-06T09:00:00:Z","depth":"4","parameterNumber":2,"parameterNumberName":"U-component_of_CURRENTS"},"data":[0,0,0,0,0,0,0,0,0,0,0,0,0,0,0,0,0,0,0,0,0,0,0,0,0,0,0,0,0,0,0,0,0,0,0,0,0,0,0,0,0,0,0,0,0,0,0,0,0,0,0,0,0,0,0,0,0,0,-0.1492,-0.1493,0,-0.1557,-0.1558,-0.1558,-0.16,-0.16,-0.16,-0.1601,-0.1669,-0.167,-0.1672,0,0,0,0,0,0,0,0,0,0,0,0,0,-0.1408,-0.1409,-0.1492,-0.1493,-0.1494,-0.1557,-0.1558,-0.1559,-0.16,-0.16,-0.16,-0.1601,-0.1668,-0.167,-0.1672,0,0,0,0,0,0,0,0,0,0,0,0,0,-0.1455,-0.141,-0.1492,-0.1523,-0.1527,-0.1557,-0.1558,-0.1559,-0.1599,-0.16,-0.1601,-0.1601,-0.1668,-0.167,-0.1672,-0.1675,0,0,-0.1679,-0.168,0,0,0,0,0,0,0,0,-0.1452,-0.1457,-0.1518,-0.1521,-0.1525,-0.1572,-0.1553,-0.1598,-0.1599,-0.157,-0.1601,-0.1601,-0.1637,-0.1642,-0.1651,-0.1678,-0.1681,-0.1679,-0.168,-0.1681,-0.1682,0,0,0,0,0,0,0,-0.1449,-0.1455,-0.1517,-0.1519,-0.1523,-0.1535,-0.1542,-0.1562,-0.1599,-0.1573,-0.1576,-0.1586,-0.1639,-0.1649,-0.1653,-0.1682,-0.1679,-0.1681,-0.1682,-0.1683,-0.1762,-0.1763,0,0,0,0,0,0,-0.1443,-0.1452,-0.1515,-0.1519,-0.1491,-0.1536,-0.1544,-0.1555,-0.1599,-0.1606,-0.1585,-0.1587,-0.1645,-0.165,-0.1655,-0.1716,-0.1681,-0.1683,-0.1684,-0.1761,-0.1762,-0.1763,0,0,0,0,0,0,-0.1441,-0.1448,-0.1512,-0.1488,-0.1497,-0.1537,-0.1549,-0.1556,-0.1592,-0.1608,-0.1616,-0.1616,-0.1645,-0.1652,-0.1693,-0.1717,-0.1684,-0.1686,-0.176,-0.1762,-0.1763,-0.1802,0,0,0,0,0,0,-0.1438,-0.1446,-0.1464,-0.1487,-0.1498,-0.1547,-0.1549,-0.1557,-0.1595,-0.16,-0.1637,-0.1642,-0.1646,-0.1689,-0.1695,-0.1719,-0.1688,-0.1759,-0.1761,-0.1762,-0.18,-0.1804,-0.1808,0,0,0,0,0,-0.1435,-0.1454,-0.1464,-0.1473,-0.1517,-0.1548,-0.1555,-0.1584,-0.1597,-0.1617,-0.1641,-0.1642,-0.1702,-0.1692,-0.1698,-0.1724,-0.1759,-0.176,-0.1762,-0.1798,-0.1804,-0.1808,0,0,0,0,0,0,-0.1429,-0.1461,-0.1473,-0.1502,-0.1531,-0.1556,-0.1581,-0.1598,-0.1633,-0.1645,-0.1657,-0.1664,-0.1707,-0.1709,-0.1697,-0.1749,-0.1729,-0.1732,-0.1754,-0.176,-0.1764,-0.176,-0.169,0,0,0,0,0,-0.1434,-0.1458,-0.1487,-0.1513,-0.1529,-0.1559,-0.158,-0.1601,-0.1629,-0.1647,-0.1672,-0.1695,-0.1714,-0.1733,-0.175,-0.1783,-0.1766,-0.1801,-0.1806,-0.1809,-0.181,-0.1804,-0.1808,-0.1769,-0.1769,-0.1769,0,0,-0.144,-0.1461,-0.1475,-0.1514,-0.1538,-0.1568,-0.1574,-0.1614,-0.1644,-0.1648,-0.1702,-0.1716,-0.1726,-0.1761,-0.178,-0.177,-0.1811,-0.1812,-0.1815,-0.1813,-0.1806,-0.181,-0.1813,-0.177,-0.177,-0.177,0,0,-0.1454,-0.1482,-0.1504,-0.1531,-0.1574,-0.1592,-0.1609,-0.165,-0.1677,-0.1722,-0.1729,-0.1756,-0.1796,-0.1803,-0.181,-0.1848,-0.1833,-0.1859,-0.1883,-0.1878,-0.1881,-0.1883,-0.186,-0.186,-0.1863,-0.1863,-0.1863,0,-0.1462,-0.1491,-0.1516,-0.1545,-0.1572,-0.1605,-0.1636,-0.1667,-0.1718,-0.1738,-0.1747,-0.1799,-0.1811,-0.184,-0.1854,-0.1858,-0.1848,-0.1864,-0.1883,-0.1885,-0.1887,-0.1863,-0.1862,-0.1865,-0.1865,-0.1865,-0.1864,0,-0.1483,-0.1519,-0.1536,-0.1581,-0.1613,-0.1648,-0.1688,-0.1728,-0.1763,-0.1786,-0.1833,-0.1848,-0.1875,-0.1885,-0.1884,-0.1908,-0.1893,-0.1888,-0.1869,-0.1893,-0.1866,-0.1865,-0.1868,-0.1867,-0.1867,-0.1866,0,0,-0.1466,-0.1538,-0.1546,-0.1574,-0.1637,-0.1662,-0.1717,-0.1765,-0.1797,-0.1845,-0.1879,-0.1913,-0.1922,-0.1929,-0.1933,-0.1934,-0.1936,-0.1923,-0.1922,-0.1898,-0.1915,-0.1788,-0.1774,-0.1939,-0.194,-0.194,-0.1889,0,-0.1476,-0.153,-0.1567,-0.1624,-0.1653,-0.1705,-0.1749,-0.1798,-0.184,-0.1881,-0.1902,-0.1935,-0.1939,-0.1954,-0.1958,-0.1943,-0.1936,-0.1949,-0.1897,-0.1895,-0.1777,-0.1769,-0.194,-0.1887,-0.1887,-0.1887,-0.1887,0,-0.1476,-0.1514,-0.157,-0.1642,-0.1661,-0.1703,-0.1773,-0.1818,-0.1878,-0.1909,-0.1947,-0.1963,-0.1982,-0.1976,-0.1964,-0.1975,-0.195,-0.1932,-0.193,-0.1795,-0.1765,-0.186,-0.1884,-0.1884,-0.1884,-0.1885,-0.1885,0,-0.1431,-0.1513,-0.1558,-0.1584,-0.167,-0.171,-0.1759,-0.1827,-0.1861,-0.1926,-0.1947,-0.198,-0.1988,-0.1978,-0.195,-0.1962,-0.1916,-0.1923,-0.1781,-0.1772,-0.1887,-0.1885,-0.1903,-0.1903,-0.1903,-0.1903,-0.1903,0,-0.1408,-0.1446,-0.1546,-0.1567,-0.162,-0.1693,-0.1748,-0.1802,-0.1868,-0.189,-0.1956,-0.1959,-0.199,-0.1971,-0.1949,-0.1847,-0.1912,-0.1772,-0.1746,-0.1904,-0.1904,-0.1885,-0.1884,-0.1901,-0.1902,-0.1902,-0.1902,0,-0.1341,-0.1411,-0.1464,-0.1566,-0.1599,-0.1636,-0.1734,-0.1762,-0.1842,-0.187,-0.1889,-0.194,-0.1906,-0.1908,-0.1875,-0.1818,-0.1753,-0.1701,-0.1855,-0.1841,-0.1614,-0.1616,-0.1534,-0.1529,-0.1525,-0.1522,-0.1519,0,-0.1307,-0.133,-0.1443,-0.1474,-0.1523,-0.1593,-0.1631,-0.1732,-0.1756,-0.1833,-0.1824,-0.1833,-0.1844,-0.1681,-0.1715,-0.1642,-0.1626,-0.1589,-0.1614,-0.1591,-0.1575,-0.1584,-0.1591,-0.1512,-0.1511,-0.151,-0.1508,0,-0.1233,-0.1288,-0.1331,-0.1392,-0.1445,-0.1493,-0.1557,-0.1559,-0.1655,-0.1746,-0.1693,-0.1662,-0.1615,-0.1578,-0.1526,-0.1486,-0.1614,-0.1544,-0.1553,-0.1577,-0.1563,-0.1553,-0.1565,-0.1494,-0.1496,-0.1497,-0.1498,0,-0.1176,-0.1187,-0.125,-0.1288,-0.1352,-0.1361,-0.1414,-0.1427,-0.1459,-0.155,-0.1525,-0.1536,-0.1586,-0.1495,-0.1453,-0.1394,-0.1378,-0.1343,-0.1362,-0.1379,-0.1353,-0.1315,-0.1131,0,0,0,0,0,-0.111,-0.1106,-0.1136,-0.1171,-0.1229,-0.1259,-0.1345,-0.14,-0.1494,-0.1408,-0.1461,-0.1408,-0.1339,-0.1354,-0.1256,-0.1391,-0.1392,-0.1274,-0.1364,-0.1412,-0.1429,-0.1414,0,0,0,0,0,0,-0.1065,-0.109,-0.1095,-0.1059,-0.1056,-0.11,-0.1145,-0.1215,-0.1177,-0.1275,-0.1236,-0.1315,-0.1261,-0.1351,-0.1219,-0.1224,-0.125,-0.1296,-0.1292,-0.1402,-0.1418,-0.1432,-0.1422,0,0,0,0,0]},{"header":{"parameterUnit":"m.s-1","parameterCategory":2,"la1":30.2991,"la2":30.254,"lo1":-89.0895,"lo2":-89.0444,"dy":0.0017,"dx":0.0017,"nx":28,"ny":28,"refTime":"2025-11-06T09:00:00:Z","depth":"4","parameterNumber":3,"parameterNumberName":"V-component_of_CURRENTS"},"data":[0,0,0,0,0,0,0,0,0,0,0,0,0,0,0,0,0,0,0,0,0,0,0,0,0,0,0,0,0,0,0,0,0,0,0,0,0,0,0,0,0,0,0,0,0,0,0,0,0,0,0,0,0,0,0,0,0,0,-0.0167,-0.0166,0,-0.0132,-0.0131,-0.0131,-0.0104,-0.0103,-0.0103,-0.0103,-0.0037,-0.0036,-0.0034,0,0,0,0,0,0,0,0,0,0,0,0,0,-0.0182,-0.0182,-0.0167,-0.0166,-0.0166,-0.0132,-0.0131,-0.013,-0.0104,-0.0103,-0.0103,-0.0103,-0.0038,-0.0036,-0.0034,0,0,0,0,0,0,0,0,0,0,0,0,0,-0.0163,-0.0182,-0.0167,-0.0149,-0.0147,-0.0132,-0.0131,-0.013,-0.0104,-0.0103,-0.0103,-0.0103,-0.0038,-0.0036,-0.0034,-0.0023,0,0,-0.0026,-0.0025,0,0,0,0,0,0,0,0,-0.0164,-0.0162,-0.0152,-0.015,-0.0148,-0.0123,-0.0112,-0.0093,-0.0104,-0.0119,-0.0103,-0.0103,-0.0064,-0.0059,-0.0052,-0.002,-0.0017,-0.0026,-0.0025,-0.0023,-0.0023,0,0,0,0,0,0,0,-0.0165,-0.0163,-0.0152,-0.0152,-0.015,-0.0133,-0.0131,-0.0108,-0.0092,-0.0118,-0.0116,-0.0114,-0.0062,-0.0054,-0.005,-0.0016,-0.0026,-0.0024,-0.0022,-0.0021,0.0035,0.0035,0,0,0,0,0,0,-0.0174,-0.0165,-0.0153,-0.0151,-0.0157,-0.0134,-0.013,-0.013,-0.0093,-0.0087,-0.0114,-0.0113,-0.0059,-0.0053,-0.0048,-0.003,-0.0024,-0.0021,-0.002,0.0034,0.0035,0.0035,0,0,0,0,0,0,-0.0174,-0.0173,-0.0154,-0.0158,-0.0154,-0.0134,-0.0134,-0.013,-0.0124,-0.009,-0.0084,-0.0113,-0.0058,-0.0051,-0.0031,-0.0027,-0.002,-0.0018,0.0034,0.0034,0.0035,0.0004,0,0,0,0,0,0,-0.0175,-0.0173,-0.0179,-0.0158,-0.0154,-0.0151,-0.0134,-0.0129,-0.0124,-0.0121,-0.0087,-0.0081,-0.0058,-0.0035,-0.0029,-0.0024,-0.0016,0.0034,0.0034,0.0035,0.0005,0.0003,0.0001,0,0,0,0,0,-0.0175,-0.0185,-0.0179,-0.0178,-0.0162,-0.0151,-0.0148,-0.0131,-0.0124,-0.0125,-0.0101,-0.0082,-0.003,-0.0033,-0.0026,-0.002,0.0034,0.0034,0.0035,0.0006,0.0003,0.0001,0,0,0,0,0,0,-0.0196,-0.0183,-0.0176,-0.0182,-0.017,-0.0147,-0.0148,-0.0136,-0.0118,-0.0116,-0.0083,-0.0075,-0.0056,-0.0035,-0.004,-0.0004,0.0006,0.0007,-0.0018,-0.002,-0.0022,-0.0029,-0.0014,0,0,0,0,0,-0.0203,-0.0207,-0.0189,-0.0195,-0.0191,-0.017,-0.0165,-0.0154,-0.0135,-0.0127,-0.0103,-0.0075,-0.0049,-0.0034,-0.0012,0.0008,0.0035,0.0017,0.0015,0.0013,0.0012,0.006,0.0063,0.0035,0.0035,0.0035,0,0,-0.0213,-0.0206,-0.0209,-0.0199,-0.0189,-0.0188,-0.0167,-0.0163,-0.0158,-0.0122,-0.011,-0.0083,-0.0047,-0.0026,-0.0015,-0.0008,0.0033,0.0013,0.0011,0.0012,0.006,0.0063,0.0066,0.0035,0.0035,0.0035,0,0,-0.0235,-0.0228,-0.0238,-0.0231,-0.022,-0.0205,-0.0207,-0.0187,-0.0174,-0.016,-0.013,-0.0101,-0.0069,-0.0036,-0.0016,-0.0014,0.0019,-0.0009,-0.0019,0.0028,0.003,0.0033,0.0063,0.0069,-0.0006,-0.0006,-0.0006,0,-0.0248,-0.0258,-0.024,-0.0246,-0.0245,-0.0216,-0.0225,-0.0207,-0.0182,-0.017,-0.0162,-0.0102,-0.0071,-0.0032,-0.003,-0.0017,0.0008,-0.0014,0.0025,0.0029,0.0032,0.0063,0.007,-0.0007,-0.0007,-0.0007,-0.0007,0,-0.0275,-0.0283,-0.0289,-0.0286,-0.028,-0.0284,-0.0258,-0.0248,-0.0229,-0.0205,-0.0171,-0.0125,-0.0089,-0.0071,-0.0049,-0.0009,-0.0001,0.0015,0.003,0.0033,0.0065,0.0073,-0.0009,-0.0009,-0.0009,-0.0008,0,0,-0.0303,-0.0308,-0.0311,-0.0321,-0.0304,-0.0304,-0.0292,-0.0271,-0.0263,-0.0225,-0.0206,-0.015,-0.0123,-0.0098,-0.006,-0.0014,0.0031,0.0006,0.001,0.0034,0.0122,0.0101,0.0108,0.0053,0.0055,0.0056,0.0132,0,-0.033,-0.036,-0.0348,-0.037,-0.0382,-0.0352,-0.0345,-0.032,-0.0289,-0.0262,-0.0198,-0.0169,-0.0133,-0.0117,-0.0064,0.0004,0.005,0.0008,0.0117,0.012,0.01,0.0116,0.006,0.0137,0.0139,0.0141,0.0142,0,-0.0359,-0.0376,-0.0409,-0.0418,-0.042,-0.0426,-0.041,-0.0398,-0.0343,-0.0318,-0.0266,-0.0219,-0.0148,-0.012,0.0004,-0.0026,0.0043,0.0101,0.0105,0.0102,0.0114,0.0137,0.0156,0.0155,0.0154,0.0153,0.0152,0,-0.0393,-0.0416,-0.0448,-0.0452,-0.0455,-0.0462,-0.0458,-0.042,-0.0409,-0.0352,-0.0335,-0.0246,-0.0203,-0.0103,0.0013,0.0009,0.0151,0.0162,0.0211,0.021,0.0219,0.0216,0.0255,0.0255,0.0255,0.0255,0.0254,0,-0.0425,-0.045,-0.0473,-0.0491,-0.0526,-0.0508,-0.0526,-0.0503,-0.0467,-0.045,-0.0371,-0.0332,-0.0195,-0.0098,0.0005,0.0127,0.0147,0.0211,0.0232,0.0203,0.0197,0.0224,0.022,0.0257,0.0257,0.0256,0.0256,0,-0.0454,-0.0468,-0.051,-0.0535,-0.0547,-0.0572,-0.0582,-0.0585,-0.0545,-0.0518,-0.0502,-0.0392,-0.0266,-0.0128,0.004,0.0109,0.0232,0.0274,0.0223,0.0239,0.026,0.0253,0.0328,0.0328,0.0327,0.0327,0.0327,0,-0.0469,-0.0496,-0.0551,-0.0584,-0.0601,-0.0635,-0.0654,-0.063,-0.0623,-0.0549,-0.0533,-0.0414,-0.0327,-0.0103,0.0034,0.0223,0.0252,0.0301,0.029,0.0257,0.027,0.0263,0.0256,0.0327,0.0327,0.0327,0.0327,0,-0.0499,-0.0524,-0.0558,-0.0631,-0.0671,-0.0706,-0.0726,-0.0726,-0.0681,-0.065,-0.0542,-0.0418,-0.0276,-0.0104,0.0041,0.0177,0.0258,0.0301,0.0302,0.0292,0.0258,0.0269,0.0262,0.0327,0.0327,0.0327,0.0327,0,-0.0517,-0.0553,-0.0607,-0.0664,-0.0721,-0.0755,-0.0763,-0.0737,-0.0717,-0.0623,-0.0588,-0.042,-0.0319,-0.0127,0.0009,0.0135,0.0164,0.0193,0.02,0.0202,0.014,0.0076,0.0111,0,0,0,0,0,-0.053,-0.0572,-0.0634,-0.0696,-0.0753,-0.0779,-0.0798,-0.079,-0.0748,-0.0675,-0.0625,-0.0483,-0.0266,-0.0169,-0.0044,-0.001,0.0167,0.0136,0.0199,0.0327,0.0327,0.0273,0,0,0,0,0,0,-0.054,-0.0601,-0.0634,-0.0707,-0.075,-0.0803,-0.0813,-0.0786,-0.0733,-0.0672,-0.055,-0.0471,-0.0258,-0.0332,-0.0045,-0.0007,0.0044,0.0245,0.0247,0.0327,0.0327,0.0327,0.0272,0,0,0,0,0]}]]